Regional Weather Roundup
Issued by NWS

Home | Current Version | Previous Version | Text Only | Print | Product List | Glossary On
Versions: 1 2 3 4 5 6 7 8 9 10 11 12 13 14 15 16 17 18 19 20 21 22 23 24 25 26 27 28 29 30 31 32 33 34 35 36 37 38 39 40 41 42 43 44 45 46 47 48 49 50
000
ASUS43 KIND 261009
RWRIN

WEATHER ROUNDUP FOR INDIANA
NATIONAL WEATHER SERVICE INDIANAPOLIS IN
600 AM EDT WED JUL 26 2017

NOTE: "FAIR" INDICATES FEW OR NO CLOUDS BELOW 12,000 FEET WITH NO
SIGNIFICANT WEATHER AND/OR OBSTRUCTIONS TO VISIBILITY.

* - STATION DOES NOT REPORT WEATHER SUCH AS PRECIPITATION OR FOG.

+ - STATION NOT QUALITY CONTROLLED BY THE NATIONAL WEATHER SERVICE.
    USE DATA WITH CAUTION...ESPECIALLY DEWPOINT AND RELATIVE
    HUMIDITY OBSERVATIONS.

INZ001>003-010>013-019-020-261100-
NORTHWEST INDIANA

CITY           SKY/WX    TMP DP  RH WIND       PRES   REMARKS
GARY /AIRPORT/ PTCLDY    66  61  82 SE7       30.12F
KNOX *+        CLOUDY    63  59  88 S3        30.14S
LA PORTE +     MOCLDY    63  60  90 CALM      30.14F
MICHIGAN CITY+ CLOUDY    64  59  82 S5        30.13F
MONTICELLO +   CLEAR     63  61  93 SE3       30.13F
RENSSELAER +   CLEAR     61  57  88 CALM      30.13S
VALPARAISO     CLOUDY    64  60  87 SE5       30.14S

$$

LMZ046-743>745-261100-
SOUTHERN LAKE MICHIGAN

STATION/POSITION TIME  TEMP    WIND        PRES    WAVE
                       AIR SEA DIR/SP/G            HT
                 (UTC) (F)     (DEG/KT/KT) (MB)    (FT)
BURNS HARBOR     0940   68     180/  7/ 13 1020.3S
MICHIGAN CITY    0940   68     160/  9/ 12   N/A
5NW MICH CITY    1000   69 74  190/ 12/ 16   N/A     1

$$

INZ004-005-014>016-021>024-261100-
NORTH CENTRAL INDIANA

CITY           SKY/WX    TMP DP  RH WIND       PRES   REMARKS
GOSHEN         CLEAR     60  56  86 CALM      30.16R
LOGANSPORT +   CLEAR     59  59 100 SE3       30.14F
ROCHESTER +    CLEAR     64  61  88 S6        30.14S
SOUTH BEND     CLOUDY    65  60  84 S6        30.15R
WARSAW +       PTCLDY    61  59  94 CALM      30.15R

$$

INZ006>009-017-018-025>027-261100-
NORTHEAST INDIANA

CITY           SKY/WX    TMP DP  RH WIND       PRES   REMARKS
AUBURN +       CLEAR     59  57  94 CALM      30.16F
FORT WAYNE     PTCLDY    59  57  93 SE5       30.16S
HUNTINGTON +   CLEAR     58  57  96 CALM      30.15F
KENDALLVILLE + CLEAR     59  58  97 SE3       30.16F

$$

INZ028-029-035-036-043>045-051>053-261100-
WEST CENTRAL INDIANA

CITY           SKY/WX    TMP DP  RH WIND       PRES   REMARKS
GREENCASTLE +  CLEAR     59  59 100 CALM      30.14S
LAFAYETTE      CLEAR     62  60  93 E3        30.13R
TERRE HAUTE    PTCLDY    64  60  87 E3        30.12S

$$

INZ030>032-037>040-046>048-054>057-064-065-261100-
CENTRAL INDIANA

CITY           SKY/WX    TMP DP  RH WIND       PRES   REMARKS
FRANKFORT +    PTCLDY    61  60  96 SE5       30.15S
GREENWOOD *+   CLEAR    N/A N/A N/A SE6       30.15F
INDIANAPOLIS   PTCLDY    63  60  90 SE7       30.13F
-EAGLE CREEK   CLEAR     65  60  84 SE6       30.13F
KOKOMO +       CLEAR     60  59  96 SE3       30.16S
MARION +       CLEAR     59  57  94 SE3       30.16F
MT COMFORT *+  CLEAR     61  59  94 CALM      30.16F
SHELBYVILLE    CLEAR     61  57  87 SE6       30.14F
ZIONSVILLE +   CLEAR     60  59  96 CALM      30.15F

$$

INZ033-034-041-042-049-050-058-059-261100-
EAST CENTRAL INDIANA

CITY           SKY/WX    TMP DP  RH WIND       PRES   REMARKS
MUNCIE         CLEAR     63  58  83 SE3       30.16S
RICHMOND +     CLEAR     52  52 100 SE6       30.17F FOG

$$

INZ060-061-067>069-081>083-085>088-261100-
SOUTHWEST INDIANA

CITY           SKY/WX    TMP DP  RH WIND       PRES   REMARKS
EVANSVILLE     MOCLDY    71  68  90 E3        30.10F
HUNTINGBURG *+ MOCLDY    69  65  86 E5        30.11F

$$

INZ062-063-066-070>080-084-089>092-261100-
SOUTH CENTRAL AND SOUTHEAST INDIANA

CITY           SKY/WX    TMP DP  RH WIND       PRES   REMARKS
BEDFORD +      PTCLDY    64  61  88 CALM      30.13F
BLOOMINGTON    CLEAR     65  60  84 SE6       30.13F
MADISON *+     CLEAR     63  59  88 CALM      30.17S
NORTH VERNON + CLEAR     61  59  94 E3        30.16S
SEYMOUR +      CLEAR     63  61  94 CALM      30.14F

$$




USA.gov is the U.S. government's official web portal to all federal, state and local government web resources and services.